Archiv-/Tagesdaten

--Timestamp---	Temp	Chill	HIndex	Humid	Dewpt	Wind	HiWind	WindDir	Rain	Barom	        Solar	ET	UV
--------------	----	-----	------	-----	-----	----	------	-------	----	-----	        -----	--	--
20080904 00:05	15.7	15.7	15.7	89	13.9	6	18	225	0.00	1008.673	0	0.000	0
20080904 00:10	15.8	15.8	15.8	89	14.0	5	10	225	0.00	1008.673	0	0.000	0
20080904 00:15	15.8	15.8	15.8	89	14.0	3	10	225	0.20	1008.673	0	0.000	0
20080904 00:20	15.7	15.7	15.7	89	13.9	5	11	247	0.00	1008.706	0	0.000	0
20080904 00:25	15.7	15.7	15.7	89	13.9	5	10	247	0.20	1008.673	0	0.000	0
20080904 00:30	15.7	15.7	15.7	89	13.9	3	10	225	0.00	1008.605	0	0.000	0
20080904 00:35	15.7	15.7	15.7	89	13.9	3	10	247	0.00	1008.503	0	0.000	0
20080904 00:40	15.6	15.6	15.6	90	14.0	2	6	247	0.20	1008.469	0	0.000	0
20080904 00:45	15.6	15.6	15.6	90	14.0	3	10	225	0.00	1008.368	0	0.000	0
20080904 00:50	15.6	15.6	15.6	90	14.0	3	8	247	0.00	1008.300	0	0.000	0
20080904 00:55	15.6	15.6	15.6	90	14.0	3	8	225	0.00	1008.266	0	0.000	0
20080904 01:00	15.6	15.6	15.6	89	13.8	3	10	225	0.00	1008.232	0	0.000	0
20080904 01:05	15.6	15.6	15.6	89	13.8	3	8	247	0.00	1008.097	0	0.000	0
20080904 01:10	15.7	15.7	15.7	90	14.0	2	6	202	0.00	1008.029	0	0.000	0
20080904 01:15	15.7	15.7	15.7	90	14.1	2	6	202	0.00	1007.995	0	0.000	0
20080904 01:20	15.7	15.7	15.7	90	14.1	0	2	202	0.00	1007.995	0	0.000	0
20080904 01:25	15.7	15.7	15.7	90	14.1	0	3	202	0.00	1007.995	0	0.000	0
20080904 01:30	15.7	15.7	15.7	90	14.1	2	6	180	0.00	1007.928	0	0.000	0
20080904 01:35	15.7	15.7	15.7	90	14.1	0	6	180	0.00	1007.792	0	0.000	0
20080904 01:40	15.7	15.7	15.7	90	14.0	2	5	157	0.00	1007.623	0	0.000	0
20080904 01:45	15.7	15.7	15.7	90	14.1	0	5	180	0.00	1007.792	0	0.000	0
20080904 01:50	15.7	15.7	15.7	90	14.0	0	3	180	0.00	1007.792	0	0.000	0
20080904 01:55	15.7	15.7	15.7	90	14.0	0	5	180	0.00	1007.860	0	0.000	0
20080904 02:00	15.7	15.7	15.7	90	14.0	0	3	180	0.00	1007.657	0	0.000	0
20080904 02:05	15.6	15.6	15.6	90	14.0	0	2	180	0.00	1007.657	0	0.000	0
20080904 02:10	15.6	15.6	15.6	90	14.0	0	5	180	0.00	1007.690	0	0.000	0
20080904 02:15	15.6	15.6	15.6	90	14.0	0	3	180	0.00	1007.657	0	0.000	0
20080904 02:20	15.6	15.6	15.6	90	13.9	0	2	180	0.00	1007.589	0	0.000	0
20080904 02:25	15.6	15.6	15.6	90	13.9	0	2	180	0.00	1007.724	0	0.000	0
20080904 02:30	15.5	15.5	15.5	90	13.9	0	3	180	0.00	1007.521	0	0.000	0
20080904 02:35	15.6	15.6	15.6	91	14.1	0	3	180	0.00	1007.589	0	0.000	0
20080904 02:40	15.6	15.6	15.6	90	13.9	0	2	180	0.00	1007.623	0	0.000	0
20080904 02:45	15.5	15.5	15.5	91	14.0	0	2	180	0.00	1007.623	0	0.000	0
20080904 02:50	15.5	15.5	15.5	91	14.0	0	6	180	0.20	1007.589	0	0.000	0
20080904 02:55	15.5	15.5	15.5	91	14.0	0	3	180	0.00	1007.521	0	0.000	0
20080904 03:00	15.5	15.5	15.5	90	13.9	0	3	180	0.00	1007.555	0	0.000	0
20080904 03:05	15.4	15.4	15.4	90	13.8	0	3	180	0.00	1007.487	0	0.000	0
20080904 03:10	15.4	15.4	15.4	91	14.0	0	3	180	0.00	1007.420	0	0.000	0
20080904 03:15	15.4	15.4	15.4	90	13.8	0	3	180	0.00	1007.420	0	0.000	0
20080904 03:20	15.4	15.4	15.4	90	13.8	0	3	180	0.00	1007.420	0	0.000	0
20080904 03:25	15.4	15.4	15.4	90	13.8	0	3	180	0.00	1007.420	0	0.000	0
20080904 03:30	15.4	15.4	15.4	90	13.8	0	3	180	0.00	1007.386	0	0.000	0
20080904 03:35	15.4	15.4	15.4	90	13.8	0	3	180	0.00	1007.318	0	0.000	0
20080904 03:40	15.4	15.4	15.4	90	13.8	0	5	180	0.00	1007.284	0	0.000	0
20080904 03:45	15.4	15.4	15.4	90	13.8	0	3	180	0.00	1007.318	0	0.000	0
20080904 03:50	15.4	15.4	15.4	90	13.8	0	3	180	0.00	1007.284	0	0.000	0
20080904 03:55	15.4	15.4	15.4	90	13.8	0	5	180	0.00	1007.284	0	0.000	0
20080904 04:00	15.3	15.3	15.3	90	13.7	0	6	180	0.00	1007.318	0	0.000	0
20080904 04:05	15.3	15.3	15.3	89	13.5	0	5	180	0.00	1007.318	0	0.000	0
20080904 04:10	15.2	15.2	15.2	89	13.4	2	5	180	0.00	1007.420	0	0.000	0
20080904 04:15	15.2	15.2	15.2	89	13.4	0	3	180	0.00	1007.453	0	0.000	0
20080904 04:20	15.2	15.2	15.2	89	13.4	0	5	180	0.00	1007.420	0	0.000	0
20080904 04:25	15.2	15.2	15.2	89	13.4	0	3	180	0.00	1007.386	0	0.000	0
20080904 04:30	15.2	15.2	15.2	89	13.4	0	2	180	0.00	1007.352	0	0.000	0
20080904 04:35	15.2	15.2	15.2	89	13.4	0	2	180	0.00	1007.318	0	0.000	0
20080904 04:40	15.2	15.2	15.2	89	13.4	0	2	180	0.00	1007.284	0	0.000	0
20080904 04:45	15.2	15.2	15.2	89	13.4	0	2	180	0.00	1007.250	0	0.000	0
20080904 04:50	15.2	15.2	15.2	89	13.4	0	2	180	0.00	1007.250	0	0.000	0
20080904 04:55	15.2	15.2	15.2	89	13.4	0	2	180	0.00	1007.183	0	0.000	0
20080904 05:00	15.1	15.1	15.1	89	13.3	0	2	180	0.00	1007.183	0	0.000	0
20080904 05:05	15.2	15.2	15.2	89	13.4	0	3	180	0.00	1007.047	0	0.000	0
20080904 05:10	15.1	15.1	15.1	89	13.3	0	2	180	0.00	1007.013	0	0.000	0
20080904 05:15	15.1	15.1	15.1	90	13.5	0	5	180	0.00	1007.013	0	0.000	0
20080904 05:20	15.1	15.1	15.1	89	13.3	0	3	180	0.00	1007.047	0	0.000	0
20080904 05:25	15.1	15.1	15.1	89	13.3	0	3	180	0.00	1006.945	0	0.000	0
20080904 05:30	15.1	15.1	15.1	89	13.3	0	5	157	0.00	1006.945	0	0.000	0
20080904 05:35	15.0	15.0	15.0	89	13.2	0	3	157	0.00	1006.810	0	0.000	0
20080904 05:40	15.0	15.0	15.0	89	13.2	2	8	135	0.00	1006.742	0	0.000	0
20080904 05:45	15.0	15.0	15.0	90	13.4	0	3	157	0.00	1006.776	0	0.000	0
20080904 05:50	15.0	15.0	15.0	89	13.2	0	2	157	0.00	1006.810	0	0.000	0
20080904 05:55	15.0	15.0	15.0	90	13.4	0	5	157	0.00	1006.776	0	0.000	0
20080904 06:00	15.0	15.0	15.0	89	13.2	0	3	157	0.00	1006.810	0	0.000	0
20080904 06:05	15.0	15.0	15.0	89	13.2	0	2	157	0.00	1006.878	0	0.000	0
20080904 06:10	15.0	15.0	15.0	90	13.4	0	2	157	0.00	1006.878	0	0.000	0
20080904 06:15	15.0	15.0	15.0	90	13.4	0	2	157	0.00	1006.878	0	0.000	0
20080904 06:20	15.1	15.1	15.1	90	13.5	0	2	157	0.00	1006.979	0	0.000	0
20080904 06:25	15.1	15.1	15.1	89	13.3	2	6	157	0.00	1007.115	0	0.000	0
20080904 06:30	15.2	15.2	15.2	89	13.4	3	8	225	0.00	1007.216	0	0.000	0
20080904 06:35	15.2	15.2	15.2	90	13.5	2	5	225	0.00	1007.318	0	0.000	0
20080904 06:40	15.2	15.2	15.2	90	13.5	2	6	225	0.00	1007.284	0	0.000	0
20080904 06:45	15.2	15.2	15.2	90	13.5	2	6	225	0.00	1007.352	0	0.000	0
20080904 06:50	15.2	15.2	15.2	90	13.5	2	6	225	0.00	1007.420	0	0.000	0
20080904 06:55	15.2	15.2	15.2	90	13.5	3	8	225	0.00	1007.420	0	0.000	0
20080904 07:00	15.2	15.2	15.2	90	13.5	2	8	225	0.00	1007.386	0	0.000	0
20080904 07:05	15.2	15.2	15.2	90	13.6	2	6	225	0.20	1007.589	0	0.000	0
20080904 07:10	15.2	15.2	15.2	90	13.5	2	8	225	0.20	1007.453	3	0.000	0
20080904 07:15	15.2	15.2	15.2	90	13.5	2	8	225	0.00	1007.589	9	0.000	0
20080904 07:20	15.2	15.2	15.2	90	13.5	2	5	180	0.00	1007.589	11	0.000	0
20080904 07:25	15.2	15.2	15.2	90	13.6	0	5	180	0.00	1007.487	9	0.000	0
20080904 07:30	15.2	15.2	15.2	90	13.6	0	8	180	0.00	1007.420	13	0.000	0
20080904 07:35	15.2	15.2	15.2	90	13.6	2	8	180	0.00	1007.453	15	0.000	0
20080904 07:40	15.3	15.3	15.3	90	13.6	3	6	180	0.00	1007.487	14	0.000	0
20080904 07:45	15.3	15.3	15.3	90	13.6	0	2	180	0.00	1007.487	19	0.000	0
20080904 07:50	15.4	15.4	15.4	91	13.9	0	2	180	0.00	1007.487	29	0.000	0
20080904 07:55	15.4	15.4	15.4	91	14.0	0	3	180	0.00	1007.521	44	0.000	0
20080904 08:00	15.4	15.4	15.4	90	13.8	0	2	180	0.00	1007.623	40	0.000	0
20080904 08:05	15.5	15.5	15.5	91	14.0	0	2	180	0.00	1007.758	47	0.000	0
20080904 08:10	15.6	15.6	15.6	91	14.1	0	2	180	0.00	1007.792	39	0.000	0
20080904 08:15	15.6	15.6	15.6	91	14.1	0	0	180	0.00	1007.758	39	0.000	0
20080904 08:20	15.7	15.7	15.7	90	14.0	0	0	180	0.00	1007.792	43	0.000	0
20080904 08:25	15.7	15.7	15.7	90	14.0	0	0	180	0.00	1007.826	27	0.000	0
20080904 08:30	15.7	15.7	15.7	90	14.1	0	0	180	0.00	1007.690	20	0.000	0
20080904 08:35	15.8	15.8	15.8	92	14.5	0	2	180	0.00	1007.758	18	0.000	0
20080904 08:40	15.8	15.8	15.8	90	14.2	0	0	180	0.00	1007.826	16	0.000	0
20080904 08:45	15.8	15.8	15.8	90	14.2	0	2	180	0.00	1007.961	22	0.000	0
20080904 08:50	15.9	15.9	15.9	89	14.1	0	2	180	0.00	1007.860	23	0.000	0
20080904 08:55	15.9	15.9	15.9	89	14.1	0	2	180	0.00	1007.860	34	0.000	0
20080904 09:00	16.0	16.0	16.0	89	14.2	0	2	180	0.00	1007.928	54	0.020	0
20080904 09:05	16.1	16.1	16.1	89	14.2	0	2	180	0.00	1008.368	81	0.000	0
20080904 09:10	16.1	16.1	16.1	89	14.2	2	5	180	0.00	1008.402	68	0.000	0
20080904 09:15	16.2	16.2	16.2	89	14.3	0	5	135	0.00	1008.402	45	0.000	0
20080904 09:20	16.2	16.2	16.2	90	14.5	0	2	135	0.00	1008.537	35	0.000	0
20080904 09:25	16.2	16.2	16.2	90	14.5	0	3	135	0.00	1008.673	39	0.000	0
20080904 09:30	16.2	16.2	16.2	90	14.6	0	2	135	0.00	1008.673	50	0.000	0
20080904 09:35	16.2	16.2	16.2	89	14.4	0	3	135	0.00	1008.943	57	0.000	0
20080904 09:40	16.2	16.2	16.2	89	14.4	0	3	135	0.20	1008.943	63	0.000	0
20080904 09:45	16.2	16.2	16.2	89	14.4	2	5	135	0.20	1009.079	66	0.000	0
20080904 09:50	16.3	16.3	16.3	90	14.7	0	0	135	0.00	1008.943	100	0.000	1
20080904 09:55	16.3	16.3	16.3	89	14.5	0	0	135	0.20	1008.943	131	0.000	1
20080904 10:00	16.4	16.4	16.4	89	14.6	0	2	135	0.00	1008.943	177	0.040	2
20080904 10:05	16.6	16.6	16.6	89	14.7	0	2	135	0.00	1008.943	191	0.000	1
20080904 10:10	16.7	16.7	16.7	88	14.7	0	3	135	0.00	1008.910	138	0.000	1
20080904 10:15	16.8	16.8	16.8	88	14.8	0	2	135	0.00	1008.910	105	0.000	1
20080904 10:20	16.8	16.8	16.8	87	14.6	0	5	135	0.00	1008.943	65	0.000	1
20080904 10:25	16.8	16.8	16.8	86	14.4	2	3	135	0.00	1008.842	89	0.000	1
20080904 10:30	16.8	16.8	16.8	86	14.4	0	2	135	0.20	1009.113	95	0.000	1
20080904 10:35	16.8	16.8	16.8	87	14.6	0	0	135	0.00	1009.079	77	0.000	1
20080904 10:40	16.7	16.7	16.7	86	14.4	0	0	135	0.20	1009.079	81	0.000	1
20080904 10:45	16.6	16.6	16.6	86	14.3	0	0	135	0.60	1009.011	62	0.000	0
20080904 10:50	16.4	16.4	16.4	86	14.0	0	3	135	1.60	1008.876	53	0.000	0
20080904 10:55	16.2	16.2	16.2	87	14.0	0	3	135	0.80	1008.842	55	0.000	0
20080904 11:00	16.1	16.1	16.1	87	13.9	0	2	135	0.40	1009.011	63	0.040	1
20080904 11:05	15.9	15.9	15.9	88	13.9	0	3	135	0.40	1009.147	61	0.000	1
20080904 11:10	15.9	15.9	15.9	89	14.1	0	2	135	0.20	1008.977	65	0.000	1
20080904 11:15	15.8	15.8	15.8	89	14.0	0	2	135	0.20	1008.943	69	0.000	1
20080904 11:20	15.8	15.8	15.8	89	14.0	0	2	135	0.00	1009.011	70	0.000	1
20080904 11:25	15.8	15.8	15.8	90	14.2	0	2	135	0.00	1009.147	87	0.000	1
20080904 11:30	15.9	15.9	15.9	90	14.2	2	5	135	0.00	1009.011	110	0.000	1
20080904 11:35	16.1	16.1	16.1	89	14.2	2	6	135	0.00	1008.842	179	0.000	2
20080904 11:40	16.3	16.3	16.3	90	14.6	0	3	135	0.00	1008.943	218	0.000	3
20080904 11:45	16.6	16.6	16.6	90	14.9	2	5	135	0.00	1008.673	364	0.000	4
20080904 11:50	16.9	16.9	16.9	89	15.1	3	10	135	0.00	1008.808	643	0.000	5
20080904 11:55	17.4	17.4	17.4	87	15.3	3	6	67	0.00	1008.740	810	0.000	6
20080904 12:00	17.8	17.8	17.8	81	14.5	3	6	45	0.00	1008.571	419	0.120	4
20080904 12:05	17.9	17.9	17.9	82	14.8	2	6	90	0.00	1008.605	298	0.000	4
20080904 12:10	18.1	18.1	18.1	80	14.6	2	5	90	0.00	1008.605	282	0.000	3
20080904 12:15	18.2	18.2	18.2	80	14.7	2	5	67	0.00	1008.571	301	0.000	3
20080904 12:20	18.2	18.2	18.2	79	14.5	3	8	112	0.00	1008.639	244	0.000	3
20080904 12:25	18.2	18.2	18.2	79	14.5	3	6	135	0.00	1008.571	235	0.000	3
20080904 12:30	18.2	18.2	18.2	81	14.9	2	6	90	0.00	1008.537	273	0.000	3
20080904 12:35	18.4	18.4	18.4	83	15.4	2	10	112	0.00	1008.402	328	0.000	4
20080904 12:40	18.6	18.6	18.6	80	15.1	3	8	67	0.00	1008.232	396	0.000	4
20080904 12:45	18.6	18.6	18.6	79	14.9	3	10	90	0.00	1008.232	317	0.000	3
20080904 12:50	18.7	18.7	18.7	80	15.1	2	8	135	0.00	1008.368	310	0.000	3
20080904 12:55	18.7	18.7	18.7	79	15.0	2	6	135	0.00	1008.673	215	0.000	2
20080904 13:00	18.7	18.7	18.7	80	15.1	3	6	135	0.00	1008.605	188	0.140	2
20080904 13:05	18.6	18.6	18.6	81	15.3	2	8	135	0.00	1008.639	197	0.000	2
20080904 13:10	18.6	18.6	18.6	83	15.7	2	8	135	0.00	1008.503	174	0.000	2
20080904 13:15	18.6	18.6	18.6	80	15.0	2	5	135	0.00	1008.774	218	0.000	2
20080904 13:20	18.6	18.6	18.6	78	14.7	3	6	135	0.00	1008.673	211	0.000	2
20080904 13:25	18.7	18.7	18.7	77	14.5	3	8	112	0.00	1008.639	243	0.000	3
20080904 13:30	18.8	18.8	18.8	78	14.9	5	10	112	0.00	1008.673	352	0.000	4
20080904 13:35	18.9	18.9	18.9	77	14.8	3	6	135	0.00	1008.639	471	0.000	4
20080904 13:40	19.2	19.2	19.2	76	14.9	3	8	112	0.00	1008.571	532	0.000	6
20080904 13:45	19.6	19.6	19.6	70	13.9	2	10	135	0.00	1008.605	806	0.000	6
20080904 13:50	19.8	19.8	19.8	69	14.0	2	5	45	0.00	1008.537	501	0.000	6
20080904 13:55	19.9	19.9	19.9	70	14.3	2	6	135	0.00	1008.537	386	0.000	4
20080904 14:00	19.9	19.9	19.9	68	13.8	2	5	112	0.00	1008.469	343	0.180	4
20080904 14:05	19.9	19.9	19.9	69	14.1	2	5	112	0.00	1008.368	650	0.000	5
20080904 14:10	20.2	20.2	20.2	67	13.8	2	5	157	0.00	1008.402	849	0.000	6
20080904 14:15	20.6	20.6	20.6	69	14.7	2	10	135	0.00	1008.266	745	0.000	6
20080904 14:20	20.7	20.7	20.7	67	14.4	2	6	112	0.00	1008.368	341	0.000	5
20080904 14:25	20.7	20.7	20.7	65	13.8	3	8	135	0.00	1008.334	363	0.000	4
20080904 14:30	20.4	20.4	20.4	66	13.9	2	6	135	0.00	1008.368	248	0.000	3
20080904 14:35	20.3	20.3	20.3	67	13.9	2	5	157	0.00	1008.266	267	0.000	3
20080904 14:40	20.3	20.3	20.3	68	14.2	2	5	157	0.00	1008.063	534	0.000	4
20080904 14:45	20.4	20.4	20.4	67	14.0	2	6	45	0.00	1008.232	316	0.000	4
20080904 14:50	20.5	20.5	20.5	66	13.9	2	5	67	0.00	1008.131	615	0.000	4
20080904 14:55	20.5	20.5	20.5	66	13.9	2	5	45	0.00	1008.232	316	0.000	4
20080904 15:00	20.5	20.5	20.5	66	13.9	2	5	315	0.00	1008.232	254	0.220	3
20080904 15:05	20.6	20.6	20.6	67	14.3	2	5	292	0.00	1008.300	289	0.000	3
20080904 15:10	20.7	20.7	20.7	66	14.1	0	5	292	0.00	1008.232	267	0.000	3
20080904 15:15	20.8	20.8	20.8	66	14.2	0	5	292	0.00	1008.232	398	0.000	3
20080904 15:20	20.9	20.9	20.9	67	14.5	2	6	292	0.00	1008.165	238	0.000	2
20080904 15:25	20.9	20.9	20.9	66	14.3	2	5	292	0.00	1008.097	312	0.000	3
20080904 15:30	21.0	21.0	21.0	68	14.9	0	3	337	0.00	1007.961	445	0.000	3
20080904 15:35	21.2	21.2	21.2	66	14.6	0	2	337	0.00	1007.758	615	0.000	4
20080904 15:40	21.3	21.3	21.3	64	14.2	2	5	45	0.00	1007.657	290	0.000	3
20080904 15:45	21.2	21.2	21.2	66	14.6	2	5	45	0.00	1007.860	631	0.000	4
20080904 15:50	21.3	21.3	21.3	68	15.1	2	5	45	0.00	1007.826	574	0.000	3
20080904 15:55	21.3	21.3	21.3	67	14.9	2	6	22	0.00	1007.826	559	0.000	3
20080904 16:00	21.1	21.1	21.1	64	14.0	2	5	22	0.00	1007.826	223	0.200	2
20080904 16:05	20.9	20.9	20.9	65	14.1	0	0	22	0.00	1007.860	259	0.000	2
20080904 16:10	21.1	21.1	21.1	67	14.7	2	3	0	0.00	1007.995	228	0.000	2
20080904 16:15	21.1	21.1	21.1	69	15.2	0	3	315	0.00	1007.995	216	0.000	2
20080904 16:20	21.2	21.2	21.2	68	15.0	0	3	337	0.00	1007.961	204	0.000	2
20080904 16:25	21.1	21.1	21.1	66	14.5	2	5	337	0.00	1007.894	220	0.000	2
20080904 16:30	20.8	20.8	20.8	66	14.2	2	5	0	0.00	1007.961	180	0.000	1
20080904 16:35	20.8	20.8	20.8	69	14.9	0	5	0	0.00	1008.097	124	0.000	1
20080904 16:40	20.8	20.8	20.8	70	15.1	0	2	337	0.00	1008.131	117	0.000	1
20080904 16:45	20.8	20.8	20.8	70	15.1	0	3	337	0.00	1008.165	111	0.000	1
20080904 16:50	20.7	20.7	20.7	71	15.3	0	2	315	0.00	1008.097	117	0.000	1
20080904 16:55	20.8	20.8	20.8	71	15.3	0	2	315	0.00	1008.097	112	0.000	1
20080904 17:00	20.7	20.7	20.7	70	15.0	0	2	315	0.00	1008.063	86	0.080	1
20080904 17:05	20.6	20.6	20.6	72	15.4	0	6	315	0.00	1008.097	84	0.000	1
20080904 17:10	20.5	20.5	20.5	72	15.3	0	2	315	0.00	1008.063	98	0.000	1
20080904 17:15	20.4	20.4	20.4	72	15.2	0	2	315	0.00	1007.995	124	0.000	1
20080904 17:20	20.4	20.4	20.4	73	15.4	0	2	315	0.00	1007.894	165	0.000	1
20080904 17:25	20.6	20.6	20.6	72	15.3	2	5	315	0.00	1007.826	188	0.000	1
20080904 17:30	20.7	20.7	20.7	72	15.4	2	5	315	0.00	1007.894	136	0.000	1
20080904 17:35	20.7	20.7	20.7	72	15.5	0	2	315	0.00	1007.928	157	0.000	1
20080904 17:40	20.7	20.7	20.7	69	14.8	0	3	315	0.00	1007.995	127	0.000	1
20080904 17:45	20.7	20.7	20.7	70	15.0	2	5	315	0.00	1008.063	108	0.000	1
20080904 17:50	20.6	20.6	20.6	71	15.2	0	2	315	0.00	1008.063	100	0.000	0
20080904 17:55	20.6	20.6	20.6	72	15.3	0	2	315	0.00	1008.097	91	0.000	0
20080904 18:00	20.4	20.4	20.4	71	15.0	0	2	315	0.00	1008.029	92	0.060	0
20080904 18:05	20.3	20.3	20.3	71	14.9	0	3	315	0.00	1008.029	82	0.000	0
20080904 18:10	20.3	20.3	20.3	73	15.3	0	2	315	0.00	1008.063	63	0.000	0
20080904 18:15	20.2	20.2	20.2	71	14.8	0	3	315	0.00	1008.198	47	0.000	0
20080904 18:20	20.2	20.2	20.2	71	14.7	0	3	315	0.00	1008.131	38	0.000	0
20080904 18:25	20.1	20.1	20.1	71	14.6	0	2	315	0.00	1008.131	30	0.000	0
20080904 18:30	20.0	20.0	20.0	70	14.4	0	2	315	0.00	1008.165	29	0.000	0
20080904 18:35	19.9	19.9	19.9	72	14.7	0	2	315	0.00	1008.232	32	0.000	0
20080904 18:40	19.9	19.9	19.9	73	14.9	0	2	315	0.00	1008.368	15	0.000	0
20080904 18:45	19.8	19.8	19.8	75	15.3	0	0	315	0.00	1008.266	7	0.000	0
20080904 18:50	19.7	19.7	19.7	74	15.0	0	3	315	0.00	1008.334	7	0.000	0
20080904 18:55	19.6	19.6	19.6	75	15.1	0	5	337	0.00	1008.232	9	0.000	0
20080904 19:00	19.5	19.5	19.5	77	15.4	0	5	337	0.00	1008.368	9	0.020	0
20080904 19:05	19.4	19.4	19.4	76	15.0	2	5	337	0.00	1008.300	9	0.000	0
20080904 19:10	19.3	19.3	19.3	77	15.1	0	3	337	0.00	1008.402	4	0.000	0
20080904 19:15	19.2	19.2	19.2	78	15.3	0	2	337	0.00	1008.300	0	0.000	0
20080904 19:20	19.2	19.2	19.2	77	15.0	0	3	337	0.00	1008.435	0	0.000	0
20080904 19:25	19.1	19.1	19.1	77	14.9	0	2	337	0.00	1008.503	0	0.000	0
20080904 19:30	18.9	18.9	18.9	75	14.4	2	6	292	0.00	1008.402	0	0.000	0
20080904 19:35	18.8	18.8	18.8	76	14.5	2	5	292	0.00	1008.571	0	0.000	0
20080904 19:40	18.5	18.5	18.5	76	14.2	3	14	292	0.00	1008.706	0	0.000	0
20080904 19:45	18.1	18.1	18.1	76	13.8	5	14	292	0.00	1008.808	0	0.000	0
20080904 19:50	17.8	17.8	17.8	77	13.7	2	10	292	0.00	1008.842	0	0.000	0
20080904 19:55	17.6	17.6	17.6	79	13.9	0	6	270	0.00	1008.842	0	0.000	0
20080904 20:00	17.4	17.4	17.4	79	13.8	2	6	270	0.00	1008.910	0	0.000	0
20080904 20:05	17.3	17.3	17.3	79	13.7	0	5	270	0.00	1008.977	0	0.000	0
20080904 20:10	17.3	17.3	17.3	80	13.8	2	6	292	0.00	1008.943	0	0.000	0
20080904 20:15	17.2	17.2	17.2	81	13.9	0	2	292	0.00	1009.011	0	0.000	0
20080904 20:20	17.2	17.2	17.2	81	13.9	0	0	292	0.00	1009.113	0	0.000	0
20080904 20:25	17.1	17.1	17.1	82	14.0	0	0	292	0.00	1009.181	0	0.000	0
20080904 20:30	17.1	17.1	17.1	82	14.0	0	2	292	0.00	1009.316	0	0.000	0
20080904 20:35	17.0	17.0	17.0	81	13.7	0	3	292	0.00	1009.384	0	0.000	0
20080904 20:40	16.9	16.9	16.9	81	13.7	0	0	292	0.00	1009.384	0	0.000	0
20080904 20:45	16.9	16.9	16.9	82	13.8	2	3	292	0.00	1009.519	0	0.000	0
20080904 20:50	16.8	16.8	16.8	81	13.5	0	3	292	0.00	1009.553	0	0.000	0
20080904 20:55	16.8	16.8	16.8	82	13.7	0	2	292	0.00	1009.553	0	0.000	0
20080904 21:00	16.8	16.8	16.8	83	13.9	0	2	292	0.00	1009.621	0	0.020	0
20080904 21:05	16.7	16.7	16.7	83	13.8	0	2	292	0.00	1009.587	0	0.000	0
20080904 21:10	16.7	16.7	16.7	84	13.9	0	2	292	0.00	1009.621	0	0.000	0
20080904 21:15	16.7	16.7	16.7	83	13.8	0	0	292	0.00	1009.621	0	0.000	0
20080904 21:20	16.7	16.7	16.7	83	13.8	0	2	292	0.00	1009.587	0	0.000	0
20080904 21:25	16.7	16.7	16.7	83	13.8	0	2	292	0.00	1009.587	0	0.000	0
20080904 21:30	16.7	16.7	16.7	83	13.8	0	3	292	0.00	1009.587	0	0.000	0
20080904 21:35	16.7	16.7	16.7	83	13.8	0	2	292	0.00	1009.553	0	0.000	0
20080904 21:40	16.7	16.7	16.7	83	13.8	0	3	292	0.00	1009.587	0	0.000	0
20080904 21:45	16.7	16.7	16.7	83	13.8	0	2	292	0.00	1009.519	0	0.000	0
20080904 21:50	16.7	16.7	16.7	83	13.8	0	2	292	0.00	1009.485	0	0.000	0
20080904 21:55	16.6	16.6	16.6	83	13.7	0	0	292	0.00	1009.519	0	0.000	0
20080904 22:00	16.6	16.6	16.6	83	13.7	0	0	292	0.00	1009.553	0	0.020	0
20080904 22:05	16.5	16.5	16.5	83	13.6	0	0	292	0.00	1009.655	0	0.000	0
20080904 22:10	16.4	16.4	16.4	84	13.7	0	2	247	0.00	1009.790	0	0.000	0
20080904 22:15	16.4	16.4	16.4	84	13.7	0	2	247	0.00	1009.824	0	0.000	0
20080904 22:20	16.4	16.4	16.4	84	13.7	0	2	247	0.00	1009.688	0	0.000	0
20080904 22:25	16.4	16.4	16.4	84	13.7	0	2	247	0.00	1009.722	0	0.000	0
20080904 22:30	16.4	16.4	16.4	84	13.7	0	2	247	0.00	1009.688	0	0.000	0
20080904 22:35	16.4	16.4	16.4	84	13.7	0	3	247	0.00	1009.621	0	0.000	0
20080904 22:40	16.4	16.4	16.4	84	13.7	0	3	202	0.00	1009.587	0	0.000	0
20080904 22:45	16.3	16.3	16.3	84	13.6	0	2	157	0.00	1009.587	0	0.000	0
20080904 22:50	16.3	16.3	16.3	84	13.6	0	0	157	0.00	1009.587	0	0.000	0
20080904 22:55	16.2	16.2	16.2	84	13.5	0	2	157	0.00	1009.485	0	0.000	0
20080904 23:00	16.2	16.2	16.2	84	13.5	0	2	157	0.00	1009.553	0	0.020	0
20080904 23:05	16.1	16.1	16.1	84	13.4	0	2	157	0.00	1009.451	0	0.000	0
20080904 23:10	16.1	16.1	16.1	84	13.3	0	0	157	0.00	1009.418	0	0.000	0
20080904 23:15	16.1	16.1	16.1	84	13.3	0	2	157	0.00	1009.451	0	0.000	0
20080904 23:20	16.1	16.1	16.1	84	13.3	0	2	157	0.00	1009.451	0	0.000	0
20080904 23:25	16.1	16.1	16.1	84	13.4	0	2	157	0.00	1009.418	0	0.000	0
20080904 23:30	16.1	16.1	16.1	84	13.4	0	2	157	0.00	1009.316	0	0.000	0
20080904 23:35	16.2	16.2	16.2	84	13.5	0	2	157	0.00	1009.282	0	0.000	0
20080904 23:40	16.2	16.2	16.2	84	13.5	0	2	157	0.00	1009.181	0	0.000	0
20080904 23:45	16.2	16.2	16.2	84	13.5	0	0	157	0.00	1009.214	0	0.000	0
20080904 23:50	16.1	16.1	16.1	84	13.4	0	0	157	0.00	1009.248	0	0.000	0
20080904 23:55	16.2	16.2	16.2	84	13.5	0	2	157	0.00	1009.045	0	0.000	0
20080904 24:00	16.1	16.1	16.1	84	13.4	0	2	157	0.00	1009.045	0	0.020	0



Please note the license to use and transfer of this data:
http://creativecommons.org/licenses/by-nc-sa/3.0/deed.en

Bitte beachten sie die Lizenz zur Verwertung und Weitergabe der Daten:
http://creativecommons.org/licenses/by-nc-sa/3.0/deed.de

zurück zur Übersicht der Archivdaten (Monats und Tagesdaten)

Cookies helfen bei der Bereitstellung von Inhalten. Durch die Nutzung dieser Seiten erklärst du dich damit einverstanden, dass Cookies auf deinem Rechner gespeichert werden. Weitere Information